EXS6GY EGNX-LERS

Flight info

Callsign EXS6GY
Flight time 1h 55m
Altitude 37000
Route SAPCO Y53 DTY UM605 SILVA Q41 COWLY UT71 VAPID UN859 SOPIL DCT BALAN DCT EVPOK DCT NARAK DCT GAI DCT LOMRA DCT ROCAN DCT PUMAL/N0412F230 N31 BERGA
Aircraft B738/M-SDE2E3FGHIRWXY/LB1

Departure

Time 2026-05-04 11:57
Airport East Midlands Airport (EGNX)

Arrival

Time 2026-05-04 13:52
Airport Reus Airport (LERS)
Time Latitude Longitude Altitude Speed Heading
2026-05-04 11:42 52.82729 -1.32934 300 ft 0 kts 178°
2026-05-04 11:49 52.82751 -1.32935 301 ft 4 kts 178°
2026-05-04 11:50 52.82773 -1.32936 302 ft 4 kts 192°
2026-05-04 11:50 52.82792 -1.32915 302 ft 4 kts 245°
2026-05-04 11:50 52.82800 -1.32879 300 ft 1 kts 253°
2026-05-04 11:50 52.82800 -1.32878 300 ft 1 kts 253°
2026-05-04 11:52 52.82800 -1.32879 300 ft 1 kts 253°
2026-05-04 11:53 52.82794 -1.32942 300 ft 8 kts 266°
2026-05-04 11:53 52.82792 -1.33034 300 ft 8 kts 269°
2026-05-04 11:53 52.82813 -1.33154 301 ft 13 kts 339°
2026-05-04 11:53 52.82917 -1.33202 302 ft 17 kts 298°
2026-05-04 11:55 52.82905 -1.34534 303 ft 4 kts 268°
2026-05-04 11:55 52.82905 -1.34606 305 ft 10 kts 281°
2026-05-04 11:56 52.82979 -1.34666 302 ft 15 kts 358°
2026-05-04 11:56 52.83066 -1.34627 301 ft 13 kts 71°
2026-05-04 11:56 52.83071 -1.34487 301 ft 23 kts 88°
2026-05-04 11:56 52.83082 -1.33812 304 ft 95 kts 88°
2026-05-04 11:57 52.83112 -1.32366 302 ft 155 kts 88°
2026-05-04 11:57 52.83143 -1.30362 597 ft 185 kts 88°
2026-05-04 11:57 52.83129 -1.28175 1463 ft 193 kts 89°
2026-05-04 11:57 52.83053 -1.25932 2252 ft 199 kts 94°
2026-05-04 11:58 52.82692 -1.23606 2571 ft 223 kts 117°
2026-05-04 11:58 52.81699 -1.21547 3106 ft 234 kts 132°
2026-05-04 11:58 52.80566 -1.19579 3713 ft 238 kts 133°
2026-05-04 11:58 52.79418 -1.17581 4329 ft 242 kts 133°
2026-05-04 11:59 52.78209 -1.15603 4931 ft 247 kts 145°
2026-05-04 11:59 52.76597 -1.14719 5578 ft 248 kts 182°
2026-05-04 11:59 52.74985 -1.15546 6321 ft 244 kts 214°
2026-05-04 11:59 52.73617 -1.17216 6996 ft 247 kts 220°
2026-05-04 12:00 52.72249 -1.19067 7443 ft 264 kts 220°
2026-05-04 12:00 52.70802 -1.21010 8098 ft 272 kts 219°
2026-05-04 12:00 52.69315 -1.22976 8932 ft 275 kts 219°
2026-05-04 12:00 52.67810 -1.24949 9786 ft 278 kts 218°
2026-05-04 12:01 52.66278 -1.26949 10463 ft 286 kts 218°
2026-05-04 12:01 52.64650 -1.29067 10704 ft 310 kts 218°
2026-05-04 12:02 52.51299 -1.36597 13812 ft 378 kts 169°
2026-05-04 12:03 52.48868 -1.34958 14523 ft 380 kts 150°
2026-05-04 12:03 52.46674 -1.32613 15194 ft 384 kts 147°
2026-05-04 12:03 52.44417 -1.30227 15784 ft 388 kts 150°
2026-05-04 12:03 52.42058 -1.28039 16415 ft 391 kts 153°
2026-05-04 12:04 52.39610 -1.26057 17076 ft 394 kts 156°
2026-05-04 12:04 52.37102 -1.24221 17706 ft 396 kts 158°
2026-05-04 12:04 52.34546 -1.22456 18318 ft 400 kts 158°
2026-05-04 12:04 52.31964 -1.20720 18844 ft 403 kts 159°
2026-05-04 12:05 52.29355 -1.18978 19385 ft 406 kts 159°
2026-05-04 12:05 52.26738 -1.17229 19922 ft 408 kts 159°
2026-05-04 12:05 52.24105 -1.15465 20449 ft 411 kts 159°
2026-05-04 12:05 52.21450 -1.13684 20974 ft 413 kts 159°
2026-05-04 12:06 52.18777 -1.11908 21480 ft 415 kts 160°
2026-05-04 12:06 52.16002 -1.10569 21973 ft 417 kts 169°
2026-05-04 12:06 52.14115 -1.09960 22320 ft 418 kts 170°
2026-05-04 12:06 52.11250 -1.09082 22821 ft 420 kts 170°
2026-05-04 12:07 52.08368 -1.08194 23302 ft 423 kts 170°
2026-05-04 12:07 52.05463 -1.07272 23730 ft 426 kts 170°
2026-05-04 12:07 52.02546 -1.06324 24112 ft 429 kts 169°
2026-05-04 12:07 51.99617 -1.05367 24504 ft 430 kts 169°
2026-05-04 12:08 51.96667 -1.04404 24890 ft 432 kts 169°
2026-05-04 12:08 51.93712 -1.03442 25257 ft 434 kts 169°
2026-05-04 12:08 51.90781 -1.02491 25611 ft 436 kts 169°
2026-05-04 12:08 51.87790 -1.01526 25969 ft 438 kts 171°
2026-05-04 12:09 51.84758 -1.00978 26312 ft 439 kts 179°
2026-05-04 12:09 51.81714 -1.01165 26665 ft 439 kts 188°
2026-05-04 12:09 51.78694 -1.01961 27014 ft 440 kts 190°
2026-05-04 12:09 51.75672 -1.02810 27382 ft 441 kts 190°
2026-05-04 12:10 51.72646 -1.03641 27849 ft 439 kts 190°
2026-05-04 12:10 51.69644 -1.04434 28407 ft 436 kts 189°
2026-05-04 12:10 51.66666 -1.05201 28994 ft 432 kts 189°
2026-05-04 12:10 51.63713 -1.05954 29546 ft 429 kts 189°
2026-05-04 12:11 51.60753 -1.06498 30051 ft 427 kts 183°
2026-05-04 12:11 51.57788 -1.06276 30458 ft 427 kts 174°
2026-05-04 12:11 51.54858 -1.05401 30751 ft 430 kts 167°
2026-05-04 12:11 51.52002 -1.03873 30971 ft 434 kts 158°
2026-05-04 12:12 51.49254 -1.01864 31308 ft 434 kts 156°
2026-05-04 12:12 51.46524 -0.99772 31675 ft 434 kts 156°
2026-05-04 12:12 51.43808 -0.97667 31987 ft 434 kts 156°
2026-05-04 12:12 51.41084 -0.95564 32277 ft 435 kts 156°
2026-05-04 12:13 51.38357 -0.93477 32590 ft 434 kts 156°
2026-05-04 12:14 51.19263 -0.79179 34612 ft 432 kts 156°
2026-05-04 12:15 51.16497 -0.77124 34853 ft 432 kts 156°
2026-05-04 12:15 51.13811 -0.75131 35081 ft 432 kts 156°
2026-05-04 12:15 51.11082 -0.73109 35291 ft 432 kts 156°
2026-05-04 12:15 51.08347 -0.71085 35527 ft 432 kts 156°
2026-05-04 12:16 51.05619 -0.69068 35741 ft 432 kts 156°
2026-05-04 12:16 51.02889 -0.67053 35946 ft 433 kts 156°
2026-05-04 12:16 51.00155 -0.65038 36159 ft 433 kts 156°
2026-05-04 12:16 50.98086 -0.63513 36312 ft 433 kts 156°
2026-05-04 12:17 50.95351 -0.61502 36498 ft 434 kts 156°
2026-05-04 12:17 50.92612 -0.59490 36674 ft 434 kts 156°
2026-05-04 12:17 50.89867 -0.57476 36874 ft 434 kts 156°
2026-05-04 12:17 50.87128 -0.55470 37012 ft 435 kts 156°
2026-05-04 12:18 50.81582 -0.51415 37024 ft 442 kts 156°
2026-05-04 12:18 50.75963 -0.47317 37026 ft 446 kts 156°
2026-05-04 12:19 50.70307 -0.43202 37026 ft 449 kts 156°
2026-05-04 12:19 50.64620 -0.39076 37019 ft 450 kts 156°
2026-05-04 12:20 50.58943 -0.34968 37015 ft 449 kts 156°
2026-05-04 12:20 50.53307 -0.30902 37017 ft 447 kts 156°
2026-05-04 12:21 50.47657 -0.26835 37019 ft 445 kts 157°
2026-05-04 12:21 50.42034 -0.22799 37016 ft 443 kts 157°
2026-05-04 12:22 50.36432 -0.18788 37018 ft 442 kts 157°
2026-05-04 12:22 50.30841 -0.14795 37017 ft 440 kts 157°
2026-05-04 12:23 50.25270 -0.10828 37017 ft 439 kts 157°
2026-05-04 12:23 50.19715 -0.06881 37015 ft 438 kts 157°
2026-05-04 12:24 50.14168 -0.02948 37011 ft 438 kts 157°
2026-05-04 12:24 50.08588 0.00678 37006 ft 436 kts 166°
2026-05-04 12:25 50.02710 0.02988 37007 ft 436 kts 168°
2026-05-04 12:25 49.96810 0.05224 37015 ft 437 kts 167°
2026-05-04 12:26 49.90901 0.07516 37013 ft 438 kts 167°
2026-05-04 12:26 49.84979 0.09836 37020 ft 439 kts 167°
2026-05-04 12:27 49.79045 0.12159 37018 ft 440 kts 167°
2026-05-04 12:27 49.73098 0.14479 37016 ft 441 kts 167°
2026-05-04 12:28 49.67138 0.16801 37018 ft 442 kts 167°
2026-05-04 12:28 49.61182 0.19194 37020 ft 442 kts 167°
2026-05-04 12:29 49.55231 0.21604 37021 ft 442 kts 167°
2026-05-04 12:29 49.49280 0.23999 37019 ft 442 kts 167°
2026-05-04 12:30 49.43333 0.26381 36994 ft 441 kts 167°
2026-05-04 12:30 49.37399 0.28752 36996 ft 440 kts 167°
2026-05-04 12:31 49.31464 0.31116 36988 ft 440 kts 167°
2026-05-04 12:31 49.25561 0.33556 36985 ft 439 kts 166°
2026-05-04 12:32 49.16738 0.37304 36983 ft 438 kts 166°
2026-05-04 12:33 49.10867 0.39777 36978 ft 437 kts 166°
2026-05-04 12:33 49.04996 0.42236 36969 ft 437 kts 166°
2026-05-04 12:34 48.99171 0.44669 36967 ft 437 kts 166°
2026-05-04 12:34 48.93303 0.47114 36969 ft 437 kts 166°
2026-05-04 12:35 48.87445 0.49550 36968 ft 437 kts 167°
2026-05-04 12:35 48.81577 0.51985 36967 ft 437 kts 167°
2026-05-04 12:36 48.75706 0.54376 36963 ft 436 kts 167°
2026-05-04 12:36 48.69825 0.56667 36963 ft 437 kts 167°
2026-05-04 12:37 48.63937 0.58957 36963 ft 437 kts 167°
2026-05-04 12:37 48.58052 0.61254 36964 ft 437 kts 167°
2026-05-04 12:38 48.52168 0.63548 36962 ft 437 kts 167°
2026-05-04 12:38 48.46294 0.65914 36965 ft 437 kts 167°
2026-05-04 12:39 48.40426 0.68317 36966 ft 437 kts 167°
2026-05-04 12:39 48.34559 0.70703 36962 ft 437 kts 167°
2026-05-04 12:40 48.28691 0.73077 36958 ft 436 kts 167°
2026-05-04 12:40 48.22869 0.75416 36963 ft 436 kts 167°
2026-05-04 12:41 48.17001 0.77724 36950 ft 436 kts 167°
2026-05-04 12:41 48.11136 0.80020 36957 ft 435 kts 167°
2026-05-04 12:42 48.05286 0.82311 36952 ft 434 kts 167°
2026-05-04 12:42 47.99440 0.84598 36946 ft 434 kts 167°
2026-05-04 12:43 47.93601 0.86877 36948 ft 433 kts 167°
2026-05-04 12:43 47.87771 0.89148 36952 ft 433 kts 167°
2026-05-04 12:44 47.81938 0.91413 36937 ft 433 kts 167°
2026-05-04 12:44 47.76140 0.93658 36939 ft 433 kts 168°
2026-05-04 12:45 47.70309 0.95911 36928 ft 434 kts 168°
2026-05-04 12:45 47.64468 0.98165 36933 ft 433 kts 168°
2026-05-04 12:46 47.58616 1.00417 36925 ft 436 kts 168°
2026-05-04 12:46 47.52747 1.02669 36924 ft 436 kts 168°
2026-05-04 12:47 47.46776 1.03501 36946 ft 430 kts 182°
2026-05-04 12:47 47.40782 1.03411 36937 ft 431 kts 182°
2026-05-04 12:48 47.34793 1.03353 36931 ft 430 kts 182°
2026-05-04 12:48 47.28800 1.03336 36929 ft 430 kts 182°
2026-05-04 12:49 47.22806 1.03335 36926 ft 430 kts 182°
2026-05-04 12:49 47.16818 1.03337 36927 ft 430 kts 182°
2026-05-04 12:50 47.11843 1.03337 36928 ft 430 kts 182°
2026-05-04 12:50 47.04884 1.03337 36928 ft 430 kts 182°
2026-05-04 12:51 46.98911 1.03337 36931 ft 429 kts 182°
2026-05-04 12:51 46.93904 1.03336 36932 ft 429 kts 182°
2026-05-04 12:52 46.87973 1.03336 36931 ft 429 kts 182°
2026-05-04 12:52 46.81996 1.03336 36937 ft 428 kts 182°
2026-05-04 12:53 46.76064 1.03335 36932 ft 428 kts 182°
2026-05-04 12:53 46.70099 1.03335 36935 ft 428 kts 182°
2026-05-04 12:54 46.64175 1.03334 36941 ft 427 kts 182°
2026-05-04 12:54 46.58207 1.03334 36936 ft 427 kts 182°
2026-05-04 12:55 46.52285 1.03395 36930 ft 428 kts 179°
2026-05-04 12:55 46.46424 1.04938 36942 ft 430 kts 170°
2026-05-04 12:56 46.40582 1.06963 36933 ft 430 kts 169°
2026-05-04 12:56 46.34781 1.08947 36937 ft 430 kts 170°
2026-05-04 12:57 46.28951 1.10903 36937 ft 430 kts 170°
2026-05-04 12:57 46.23105 1.12846 36934 ft 429 kts 170°
2026-05-04 12:58 46.17304 1.14768 36938 ft 429 kts 170°
2026-05-04 12:58 46.11465 1.16699 36942 ft 430 kts 171°
2026-05-04 12:59 46.05666 1.18614 36950 ft 429 kts 171°
2026-05-04 12:59 45.99827 1.20538 36936 ft 429 kts 171°
2026-05-04 13:00 45.94025 1.22446 36934 ft 429 kts 171°
2026-05-04 13:00 45.88194 1.24359 36936 ft 429 kts 171°
2026-05-04 13:01 45.82385 1.26261 36941 ft 428 kts 171°
2026-05-04 13:01 45.76594 1.28153 36935 ft 428 kts 171°
2026-05-04 13:02 45.70813 1.30037 36940 ft 428 kts 171°
2026-05-04 13:02 45.64990 1.31931 36940 ft 427 kts 171°
2026-05-04 13:03 45.59215 1.33806 36927 ft 427 kts 171°
2026-05-04 13:03 45.53421 1.35683 36930 ft 427 kts 171°
2026-05-04 13:04 45.47626 1.37557 36927 ft 427 kts 171°
2026-05-04 13:04 45.41835 1.39423 36924 ft 426 kts 171°
2026-05-04 13:05 45.36052 1.41283 36930 ft 426 kts 171°
2026-05-04 13:05 45.30269 1.43140 36926 ft 426 kts 171°
2026-05-04 13:06 45.24522 1.44982 36909 ft 426 kts 171°
2026-05-04 13:06 45.18746 1.46829 36912 ft 426 kts 171°
2026-05-04 13:07 45.12963 1.48675 36908 ft 426 kts 172°
2026-05-04 13:07 45.07178 1.50517 36903 ft 426 kts 171°
2026-05-04 13:08 45.01392 1.52356 36913 ft 426 kts 172°
2026-05-04 13:08 44.95604 1.54192 36908 ft 426 kts 172°
2026-05-04 13:09 44.89851 1.56014 36910 ft 426 kts 172°
2026-05-04 13:09 44.84068 1.57840 36911 ft 426 kts 172°
2026-05-04 13:10 44.78277 1.59665 36909 ft 427 kts 172°
2026-05-04 13:10 44.72485 1.61488 36915 ft 426 kts 172°
2026-05-04 13:11 44.66694 1.63306 36932 ft 426 kts 172°
2026-05-04 13:11 44.60900 1.65121 36927 ft 426 kts 172°
2026-05-04 13:12 44.55111 1.66931 36933 ft 427 kts 172°
2026-05-04 13:12 44.49308 1.68742 36918 ft 427 kts 172°
2026-05-04 13:13 44.43503 1.70550 36924 ft 427 kts 172°
2026-05-04 13:13 44.37739 1.72342 36921 ft 427 kts 172°
2026-05-04 13:14 44.31934 1.74143 36926 ft 427 kts 172°
2026-05-04 13:14 44.26108 1.75735 36925 ft 425 kts 175°
2026-05-04 13:15 44.20262 1.76990 36922 ft 425 kts 176°
2026-05-04 13:15 44.14411 1.78239 36922 ft 426 kts 176°
2026-05-04 13:16 44.08547 1.79524 36922 ft 426 kts 176°
2026-05-04 13:16 44.02693 1.80815 36926 ft 426 kts 176°
2026-05-04 13:17 43.96842 1.82101 36922 ft 425 kts 176°
2026-05-04 13:17 43.91028 1.82951 36927 ft 421 kts 181°
2026-05-04 13:18 43.85147 1.83473 36918 ft 420 kts 181°
2026-05-04 13:18 43.79353 1.83991 36916 ft 419 kts 181°
2026-05-04 13:19 43.73533 1.84542 36920 ft 419 kts 181°
2026-05-04 13:19 43.67720 1.85103 36910 ft 418 kts 181°
2026-05-04 13:20 43.61921 1.85664 36917 ft 417 kts 181°
2026-05-04 13:20 43.56127 1.86223 36918 ft 416 kts 181°
2026-05-04 13:21 43.50350 1.86778 36920 ft 416 kts 181°
2026-05-04 13:21 43.44569 1.87333 36922 ft 416 kts 181°
2026-05-04 13:22 43.38801 1.87886 36913 ft 416 kts 181°
2026-05-04 13:22 43.33064 1.88435 36915 ft 416 kts 181°
2026-05-04 13:23 43.27281 1.88988 36923 ft 416 kts 181°
2026-05-04 13:23 43.21498 1.89540 36918 ft 417 kts 181°
2026-05-04 13:24 43.15701 1.90093 36913 ft 418 kts 182°
2026-05-04 13:24 43.09894 1.90646 36914 ft 419 kts 182°
2026-05-04 13:25 43.01211 1.91471 36906 ft 419 kts 182°
2026-05-04 13:25 42.95381 1.92020 36512 ft 425 kts 182°
2026-05-04 13:26 42.92433 1.92299 36008 ft 422 kts 182°
2026-05-04 13:26 42.89507 1.92578 35376 ft 421 kts 182°
2026-05-04 13:26 42.86579 1.92855 34588 ft 423 kts 182°
2026-05-04 13:26 42.83656 1.93132 33975 ft 420 kts 182°
2026-05-04 13:27 42.80722 1.93408 33068 ft 423 kts 182°
2026-05-04 13:27 42.77794 1.93683 32353 ft 421 kts 182°
2026-05-04 13:27 42.74867 1.93959 31615 ft 421 kts 181°
2026-05-04 13:27 42.71942 1.94234 30893 ft 421 kts 181°
2026-05-04 13:28 42.69062 1.94503 30282 ft 420 kts 181°
2026-05-04 13:28 42.66141 1.94853 29681 ft 421 kts 178°
2026-05-04 13:28 42.63252 1.95390 29075 ft 416 kts 176°
2026-05-04 13:28 42.60410 1.95989 28514 ft 411 kts 176°
2026-05-04 13:29 42.57603 1.96600 27964 ft 407 kts 176°
2026-05-04 13:29 42.54826 1.97214 27423 ft 402 kts 176°
2026-05-04 13:29 42.52078 1.97817 26882 ft 398 kts 176°
2026-05-04 13:29 42.49357 1.98409 26348 ft 395 kts 176°
2026-05-04 13:30 42.46653 1.98991 25809 ft 392 kts 176°
2026-05-04 13:30 42.43968 1.99567 25274 ft 389 kts 176°
2026-05-04 13:30 42.41301 2.00134 24759 ft 386 kts 176°
2026-05-04 13:30 42.38653 2.00678 24238 ft 384 kts 176°
2026-05-04 13:31 42.36017 2.01226 23723 ft 382 kts 176°
2026-05-04 13:31 42.33391 2.01763 23110 ft 382 kts 176°
2026-05-04 13:31 42.30773 2.02296 22525 ft 379 kts 175°
2026-05-04 13:31 42.28211 2.02632 22037 ft 371 kts 185°
2026-05-04 13:32 42.25647 2.02525 21542 ft 367 kts 185°
2026-05-04 13:32 42.23094 2.02567 21029 ft 366 kts 181°
2026-05-04 13:32 42.20558 2.02771 20520 ft 364 kts 181°
2026-05-04 13:32 42.18084 2.02454 20007 ft 355 kts 198°
2026-05-04 13:33 42.15826 2.01222 19630 ft 348 kts 211°
2026-05-04 13:33 42.13903 1.99255 19271 ft 350 kts 222°
2026-05-04 13:33 42.12098 1.96990 18910 ft 353 kts 224°
2026-05-04 13:33 42.10342 1.94710 18538 ft 349 kts 224°
2026-05-04 13:34 42.08615 1.92470 18114 ft 339 kts 224°
2026-05-04 13:34 42.06931 1.90303 17673 ft 330 kts 224°
2026-05-04 13:34 42.05305 1.88229 17242 ft 322 kts 223°
2026-05-04 13:34 42.03697 1.86189 16819 ft 314 kts 223°
2026-05-04 13:35 42.02126 1.84204 16407 ft 306 kts 223°
2026-05-04 13:35 41.99079 1.80363 15595 ft 295 kts 223°
2026-05-04 13:35 41.97596 1.78497 15189 ft 290 kts 223°
2026-05-04 13:36 41.96132 1.76662 14807 ft 287 kts 221°
2026-05-04 13:36 41.94562 1.74981 14439 ft 289 kts 216°
2026-05-04 13:36 41.92922 1.73427 14154 ft 287 kts 215°
2026-05-04 13:36 41.91279 1.71902 13876 ft 286 kts 215°
2026-05-04 13:37 41.89645 1.70379 13579 ft 285 kts 215°
2026-05-04 13:37 41.88046 1.68880 13271 ft 283 kts 216°
2026-05-04 13:37 41.86435 1.67360 12971 ft 282 kts 215°
2026-05-04 13:37 41.85351 1.66334 12747 ft 282 kts 216°
2026-05-04 13:38 41.83234 1.64324 12386 ft 279 kts 215°
2026-05-04 13:38 41.81657 1.62826 12128 ft 277 kts 216°
2026-05-04 13:38 41.80091 1.61337 11864 ft 275 kts 216°
2026-05-04 13:38 41.78530 1.59852 11619 ft 275 kts 216°
2026-05-04 13:39 41.76961 1.58363 11384 ft 277 kts 216°
2026-05-04 13:39 41.75380 1.56863 11134 ft 279 kts 216°
2026-05-04 13:39 41.73784 1.55391 10882 ft 279 kts 210°
2026-05-04 13:39 41.71961 1.54521 10630 ft 280 kts 193°
2026-05-04 13:40 41.70072 1.54037 10400 ft 280 kts 192°
2026-05-04 13:40 41.68154 1.53571 10159 ft 280 kts 192°
2026-05-04 13:40 41.66238 1.53103 9919 ft 280 kts 192°
2026-05-04 13:40 41.64328 1.52630 9656 ft 279 kts 192°
2026-05-04 13:41 41.62420 1.52151 9411 ft 278 kts 192°
2026-05-04 13:41 41.60524 1.51671 9151 ft 276 kts 192°
2026-05-04 13:41 41.58649 1.51195 8880 ft 273 kts 192°
2026-05-04 13:42 41.54918 1.50972 8368 ft 269 kts 174°
2026-05-04 13:42 41.53078 1.51339 8108 ft 266 kts 173°
2026-05-04 13:42 41.51261 1.51720 7862 ft 263 kts 173°
2026-05-04 13:42 41.49482 1.52077 7602 ft 260 kts 174°
2026-05-04 13:43 41.47699 1.52417 7366 ft 257 kts 174°
2026-05-04 13:43 41.45936 1.52741 7118 ft 255 kts 174°
2026-05-04 13:43 41.44194 1.53052 6914 ft 250 kts 174°
2026-05-04 13:43 41.42477 1.53353 6716 ft 247 kts 174°
2026-05-04 13:44 41.40776 1.53648 6535 ft 246 kts 174°
2026-05-04 13:44 41.39081 1.53940 6322 ft 244 kts 175°
2026-05-04 13:44 41.37414 1.54228 6132 ft 239 kts 174°
2026-05-04 13:44 41.35776 1.54505 6003 ft 235 kts 177°
2026-05-04 13:45 41.34225 1.54208 5973 ft 224 kts 204°
2026-05-04 13:45 41.32932 1.53093 5933 ft 224 kts 221°
2026-05-04 13:45 41.31802 1.51649 5821 ft 227 kts 224°
2026-05-04 13:45 41.30687 1.50142 5640 ft 232 kts 225°
2026-05-04 13:46 41.29551 1.48603 5425 ft 231 kts 225°
2026-05-04 13:46 41.28436 1.47103 5179 ft 223 kts 224°
2026-05-04 13:46 41.27365 1.45670 4939 ft 215 kts 224°
2026-05-04 13:46 41.26330 1.44292 4682 ft 207 kts 224°
2026-05-04 13:47 41.25325 1.42960 4421 ft 201 kts 225°
2026-05-04 13:47 41.24678 1.42102 4256 ft 196 kts 224°
2026-05-04 13:47 41.23426 1.40448 3943 ft 188 kts 224°
2026-05-04 13:47 41.22491 1.39217 3607 ft 188 kts 224°
2026-05-04 13:48 41.21568 1.38002 3378 ft 186 kts 224°
2026-05-04 13:48 41.20731 1.36707 3103 ft 186 kts 240°
2026-05-04 13:48 41.20184 1.35172 2872 ft 182 kts 244°
2026-05-04 13:48 41.19847 1.34159 2724 ft 181 kts 245°
2026-05-04 13:49 41.19382 1.32634 2503 ft 173 kts 246°
2026-05-04 13:49 41.18964 1.31212 2278 ft 159 kts 247°
2026-05-04 13:49 41.18580 1.29897 2087 ft 150 kts 246°
2026-05-04 13:49 41.18201 1.28598 1873 ft 152 kts 246°
2026-05-04 13:50 41.17823 1.27305 1663 ft 149 kts 247°
2026-05-04 13:50 41.17455 1.26043 1469 ft 145 kts 246°
2026-05-04 13:50 41.17097 1.24812 1273 ft 141 kts 246°
2026-05-04 13:50 41.16741 1.23610 1105 ft 141 kts 245°
2026-05-04 13:51 41.16387 1.22383 926 ft 142 kts 246°
2026-05-04 13:51 41.16029 1.21147 725 ft 143 kts 245°
2026-05-04 13:51 41.15674 1.19937 510 ft 142 kts 251°
2026-05-04 13:51 41.15326 1.18688 334 ft 144 kts 244°
2026-05-04 13:52 41.14691 1.16559 239 ft 75 kts 249°
2026-05-04 13:52 41.14583 1.16186 238 ft 36 kts 249°
2026-05-04 13:52 41.14525 1.15988 237 ft 11 kts 250°
2026-05-04 13:53 41.14553 1.15893 237 ft 14 kts 336°
2026-05-04 13:53 41.14598 1.15870 238 ft 6 kts 339°
2026-05-04 13:53 41.14638 1.15848 238 ft 6 kts 326°
2026-05-04 13:54 41.14636 1.15756 238 ft 1 kts 248°
2026-05-04 13:54 41.14634 1.15750 238 ft 1 kts 248°
2026-05-04 13:54 41.14631 1.15740 238 ft 1 kts 248°
2026-05-04 13:55 41.14617 1.15690 238 ft 5 kts 249°
2026-05-04 13:55 41.14654 1.15624 238 ft 1 kts 340°
2026-05-04 13:55 41.14672 1.15617 238 ft 3 kts 342°
2026-05-04 13:56 41.14683 1.15612 238 ft 2 kts 342°
2026-05-04 13:56 41.14685 1.15611 238 ft 0 kts 342°